Total_Precipitation_Accumulation
1.68 2.16 2.69 3.19 3.84 4.74 5.66 6.04 5.86 5.30 4.85 4.43 3.98 3.66 3.37 3.16 3.04 2.72 2.36 2.26 2.20 2.17 2.37 2.07 2.25 2.27 2.39 2.45 2.41 2.52 2.48 2.23 2.36 2.75 2.67 2.33 2.15 2.18 2.09 2.00 2.06 1.85 1.90
1.74 2.26 2.86 3.25 3.57 4.09 4.82 5.13 4.83 4.22 3.63 3.38 3.29 3.18 3.13 2.80 2.57 2.45 2.36 2.07 2.06 2.05 2.06 2.17 1.95 2.00 2.17 2.14 2.15 2.43 2.39 2.09 2.17 2.58 2.80 2.63 2.65 2.40 1.82 1.81 1.97 1.96 2.02
1.53 2.27 2.82 3.10 3.35 3.54 3.52 3.64 3.55 3.08 2.75 2.68 2.72 2.71 2.86 2.66 2.38 2.24 2.12 1.88 1.79 1.74 1.82 1.85 1.91 2.03 1.96 2.05 2.11 2.17 2.30 2.22 2.04 2.11 2.65 2.63 2.51 2.32 2.06 1.79 1.80 1.96 2.20
1.37 2.13 2.43 2.54 2.57 2.65 2.46 2.46 2.55 2.39 2.35 2.28 2.34 2.24 2.11 2.10 2.01 1.99 1.92 1.83 1.70 1.64 1.53 1.60 1.70 1.87 1.87 2.11 1.87 1.94 2.16 2.24 2.02 2.03 2.14 2.17 2.25 2.36 2.16 1.83 1.69 1.74 1.85
1.07 1.41 1.49 1.62 1.70 1.77 1.79 1.97 2.23 2.27 2.17 2.13 2.27 2.29 2.01 1.86 1.77 1.80 1.88 1.79 1.66 1.55 1.42 1.48 1.65 1.80 1.84 1.91 1.91 2.14 2.10 2.01 1.99 1.99 2.06 2.13 2.15 2.06 2.11 2.03 1.80 1.70 1.60
0.77 0.96 1.02 1.09 1.16 1.20 1.32 1.53 1.95 2.15 2.02 1.98 2.04 2.02 1.95 1.89 1.78 1.71 1.73 1.70 1.65 1.62 1.60 1.53 1.66 1.68 1.71 1.76 1.84 2.00 2.00 1.99 2.04 1.93 1.88 2.05 2.14 2.11 2.18 2.06 1.83 1.70 1.51
0.68 0.80 0.96 1.02 0.93 0.90 1.02 1.22 1.54 1.69 1.64 1.71 1.83 1.90 1.96 1.90 1.76 1.69 1.62 1.60 1.50 1.55 1.70 1.66 1.71 1.73 1.75 1.69 1.79 1.85 1.84 1.91 2.02 1.94 1.83 1.84 1.84 1.97 2.10 2.13 1.86 1.73 1.57
0.55 0.59 0.69 0.69 0.68 0.76 0.83 1.00 1.16 1.24 1.33 1.44 1.62 1.76 1.78 1.75 1.71 1.80 1.67 1.55 1.42 1.40 1.57 1.70 1.72 1.67 1.59 1.58 1.92 1.78 1.71 1.85 1.93 1.86 2.12 2.03 1.82 1.97 2.09 2.19 2.25 2.07 1.96
0.41 0.40 0.44 0.47 0.54 0.72 0.82 0.87 0.97 1.08 1.19 1.29 1.51 1.64 1.64 1.59 1.62 1.72 1.64 1.48 1.49 1.44 1.53 1.51 1.67 1.73 1.63 1.65 1.83 1.80 1.75 1.83 1.81 1.94 2.17 2.15 2.04 2.05 2.07 2.25 2.50 2.64 2.43
0.36 0.38 0.41 0.45 0.47 0.54 0.72 0.82 0.87 1.02 1.18 1.26 1.29 1.33 1.46 1.44 1.42 1.37 1.36 1.44 1.47 1.47 1.55 1.57 1.51 1.57 1.65 1.73 1.85 1.77 1.72 1.84 1.92 2.04 2.16 2.17 2.15 2.19 2.09 2.19 2.41 2.59 2.63
0.44 0.40 0.46 0.50 0.51 0.52 0.66 0.78 0.82 0.90 1.00 1.01 1.03 1.13 1.22 1.22 1.20 1.19 1.17 1.29 1.34 1.40 1.42 1.44 1.46 1.46 1.54 1.78 2.06 1.98 1.95 1.99 2.04 2.07 2.22 2.30 2.46 2.47 2.34 2.32 2.30 2.38 2.52
0.57 0.53 0.56 0.51 0.57 0.61 0.65 0.74 0.71 0.72 0.75 0.79 0.84 0.93 1.06 1.08 1.08 1.12 1.26 1.35 1.33 1.29 1.19 1.24 1.30 1.28 1.40 1.66 1.98 2.14 2.19 2.26 2.23 2.28 2.45 2.49 2.51 2.45 2.34 2.38 2.35 2.32 2.48
0.58 0.71 0.71 0.57 0.57 0.60 0.65 0.67 0.63 0.65 0.68 0.72 0.75 0.83 0.98 1.14 1.21 1.26 1.32 1.40 1.41 1.33 1.31 1.32 1.31 1.45 1.55 1.59 1.77 1.97 2.07 2.14 2.15 2.28 2.33 2.31 2.40 2.33 2.31 2.21 2.18 2.20 2.37
0.59 0.73 0.82 0.63 0.55 0.57 0.58 0.59 0.59 0.55 0.54 0.63 0.76 0.87 1.07 1.29 1.39 1.40 1.42 1.43 1.43 1.39 1.42 1.43 1.48 1.60 1.63 1.60 1.70 1.85 1.98 2.06 2.08 2.16 2.22 2.28 2.28 2.32 2.41 2.30 2.30 2.41 2.53
0.61 0.59 0.64 0.59 0.56 0.57 0.57 0.59 0.61 0.61 0.63 0.80 0.92 1.07 1.29 1.36 1.40 1.46 1.48 1.51 1.53 1.45 1.53 1.60 1.60 1.60 1.52 1.47 1.70 1.84 1.87 2.04 2.09 2.06 2.02 2.10 2.27 2.35 2.38 2.20 2.29 2.44 2.44
0.67 0.74 0.74 0.71 0.72 0.69 0.65 0.66 0.70 0.77 0.92 1.08 1.20 1.27 1.36 1.42 1.37 1.36 1.38 1.51 1.56 1.64 1.75 1.78 1.78 1.69 1.48 1.68 1.78 1.81 1.88 1.98 2.00 2.00 1.90 1.82 1.82 1.91 2.04 2.05 2.05 2.13 2.20
0.82 0.94 0.98 0.93 0.92 0.86 0.81 0.83 0.87 1.00 1.18 1.37 1.54 1.54 1.51 1.53 1.50 1.50 1.49 1.53 1.69 1.82 1.85 1.83 1.84 1.80 1.83 1.85 1.66 1.60 1.55 1.59 1.66 1.66 1.63 1.42 1.34 1.61 1.71 1.87 1.86 1.75 1.74
0.87 1.01 1.09 1.08 0.99 0.98 1.02 1.14 1.21 1.29 1.44 1.55 1.69 1.79 1.80 1.87 1.92 1.98 1.92 1.93 1.98 2.06 2.02 1.94 1.95 2.01 2.03 2.04 1.73 1.62 1.49 1.47 1.46 1.45 1.41 1.41 1.41 1.49 1.63 1.68 1.64 1.57 1.52
1.00 1.14 1.14 1.11 1.10 1.25 1.30 1.33 1.38 1.44 1.63 1.80 1.93 2.04 2.10 2.11 2.11 2.13 2.22 2.31 2.42 2.44 2.34 2.28 2.30 2.32 2.41 2.41 2.09 1.94 1.70 1.61 1.53 1.55 1.59 1.61 1.48 1.54 1.53 1.52 1.48 1.45 1.49
1.13 1.25 1.26 1.23 1.32 1.57 1.62 1.66 1.70 1.75 1.84 1.92 2.07 2.26 2.36 2.38 2.33 2.35 2.50 2.66 2.79 2.75 2.73 2.74 2.76 2.69 2.68 2.64 2.27 2.12 1.90 1.86 1.80 1.81 1.70 1.62 1.45 1.40 1.35 1.34 1.38 1.32 1.33
1.09 1.23 1.26 1.26 1.34 1.54 1.73 1.97 2.10 2.13 2.13 2.18 2.26 2.35 2.43 2.55 2.60 2.66 2.71 2.87 2.98 2.95 2.90 2.83 2.78 2.71 2.68 2.62 2.30 2.12 1.90 1.88 1.91 1.82 1.74 1.63 1.49 1.32 1.29 1.23 1.22 1.24 1.34
1.04 1.15 1.29 1.37 1.46 1.61 1.87 2.08 2.23 2.36 2.44 2.42 2.52 2.55 2.55 2.47 2.46 2.69 2.85 3.02 3.18 3.15 3.08 3.10 2.96 2.81 2.70 2.45 2.23 2.07 1.94 1.99 2.03 1.95 1.86 1.77 1.63 1.39 1.31 1.18 1.14 1.19 1.16
1.04 1.10 1.21 1.35 1.45 1.55 1.75 2.12 2.24 2.29 2.33 2.40 2.44 2.53 2.57 2.59 2.62 2.81 2.97 3.16 3.24 3.16 3.05 3.05 2.98 2.80 2.63 2.50 2.27 2.03 1.93 1.95 1.93 2.01 2.08 1.90 1.72 1.51 1.36 1.31 1.26 1.18 1.09
1.06 1.10 1.18 1.30 1.39 1.35 1.49 1.69 1.90 2.02 2.03 2.05 2.10 2.13 2.25 2.38 2.57 2.85 2.93 3.00 3.06 3.07 3.04 2.96 2.85 2.81 2.78 2.73 2.48 2.17 1.93 1.88 1.92 1.97 2.02 1.89 1.74 1.53 1.39 1.38 1.28 1.13 1.10
1.03 1.09 1.23 1.23 1.26 1.33 1.34 1.37 1.43 1.64 1.80 1.82 1.87 2.00 2.10 2.24 2.43 2.66 2.83 2.79 2.82 3.01 2.90 2.69 2.52 2.41 2.32 2.42 2.34 2.08 1.94 1.90 1.98 2.02 2.06 2.00 1.89 1.76 1.61 1.52 1.51 1.47 1.39
1.05 1.12 1.20 1.18 1.15 1.24 1.28 1.31 1.42 1.60 1.69 1.66 1.68 1.73 1.78 1.92 2.08 2.24 2.37 2.39 2.18 2.25 2.15 1.98 1.83 1.72 1.69 1.73 1.62 1.50 1.45 1.53 1.70 1.78 1.95 1.98 1.89 1.80 1.76 1.72 1.68 1.63 1.53